Weather History for KRQB - September, 2014

Change the Weather History Date:

Friday, September 5, 2014

  Actual Average Record
Temperature  
Mean Temperature 70 °F -  
Max Temperature 79 °F 75 °F 93 °F (1999)
Min Temperature 62 °F 51 °F 33 °F (2003)
Cooling Degree Days 6    
Growing Degree Days 20 (Base 50)    
Moisture  
Dew Point 68 °F    
Average Humidity 86    
Maximum Humidity 94    
Minimum Humidity 70    
Precipitation  
Precipitation 0.00 in - - ()
Sea Level Pressure  
Sea Level Pressure 29.94 in    
Wind  
Wind Speed 8 mph (WSW)    
Max Wind Speed 21 mph    
Max Gust Speed 34 mph    
Visibility 10 miles    
Events Rain    
Averages and records for this station are not official NWS values.
T = Trace of Precipitation, MM = Missing Value Source: NWS Daily Summary

Daily Weather History Graph

Daily Weather History Graph

Search for Another Location

Airport or City:

Trip Planner

Search our weather history database for the weather conditions in past years. The results will help you decide how hot, cold, wet, or windy it might be!

Date:

Astronomy

Sep. 05, 2014 Rise Set
Actual Time 7:10 AM EDT 8:10 PM EDT
Civil Twilight 6:40 AM EDT 8:39 PM EDT
Nautical Twilight 6:05 AM EDT 9:14 PM EDT
Astronomical Twilight 5:28 AM EDT 9:51 PM EDT
Moon 5:43 PM EDT (9/5) 2:57 AM EDT (9/5)
Length of Visible Light 13h 58m
Length of Day
13h 00m
Waxing Gibbous, 83% of the Moon is Illuminated
Sep 5
Waxing Gibbous
Sep 8
Full
Sep 15
Last Quarter
Sep 24
New
Oct 1
First Quarter

Hourly Weather History & Observations

Time (EDT) Temp. Dew Point Humidity Pressure Visibility Wind Dir Wind Speed Gust Speed Precip Events Conditions
12:14 AM 72.0 °F 69.4 °F 92% 29.98 in 10.0 mi SSW 5.8 mph - N/A   Clear
12:35 AM 72.3 °F 69.4 °F 91% 29.98 in 10.0 mi SW 8.1 mph - N/A   Clear
12:55 AM 72.1 °F 69.3 °F 91% 29.96 in 10.0 mi South 9.2 mph - N/A   Scattered Clouds
1:15 AM 71.8 °F 69.8 °F 93% 29.94 in 10.0 mi South 9.2 mph - N/A   Scattered Clouds
1:35 AM 72.0 °F 70.2 °F 94% 29.94 in 10.0 mi SSW 8.1 mph - N/A   Scattered Clouds
1:55 AM 72.5 °F 70.3 °F 93% 29.94 in 10.0 mi South 9.2 mph - N/A   Clear
2:15 AM 72.9 °F 70.7 °F 93% 29.92 in 10.0 mi South 10.4 mph 20.7 mph N/A   Scattered Clouds
2:35 AM 72.1 °F 69.6 °F 92% 29.89 in 10.0 mi South 6.9 mph - N/A   Clear
2:55 AM 71.8 °F 68.9 °F 91% 29.91 in 10.0 mi NNE 10.4 mph - N/A   Clear
3:15 AM 71.1 °F 68.2 °F 91% 29.90 in 10.0 mi South 4.6 mph - N/A   Clear
3:35 AM 73.4 °F 68.7 °F 85% 29.91 in 10.0 mi WSW 10.4 mph - N/A   Clear
3:55 AM 75.6 °F 70.7 °F 85% 29.90 in 10.0 mi WSW 12.7 mph 20.7 mph N/A   Clear
4:15 AM 75.7 °F 71.6 °F 87% 29.92 in 10.0 mi WSW 15.0 mph 20.7 mph N/A   Clear
4:35 AM 75.4 °F 71.8 °F 89% 29.96 in 10.0 mi West 10.4 mph 18.4 mph N/A   Scattered Clouds
4:54 AM 74.1 °F 66.2 °F 76% 29.97 in 10.0 mi North 20.7 mph 34.5 mph N/A   Mostly Cloudy
5:15 AM 72.9 °F 63.9 °F 73% 29.98 in 10.0 mi NW 9.2 mph 20.7 mph N/A   Overcast
5:35 AM 71.8 °F 64.4 °F 77% 29.97 in 10.0 mi NNE 4.6 mph - N/A   Overcast
5:54 AM 70.0 °F 65.5 °F 86% 29.96 in 10.0 mi South 3.5 mph - N/A   Overcast
6:15 AM 70.0 °F 65.3 °F 85% 29.96 in 10.0 mi SSW 5.8 mph - N/A   Overcast
6:35 AM 70.7 °F 65.3 °F 83% 29.95 in 10.0 mi SSE 5.8 mph - N/A   Overcast
6:54 AM 70.7 °F 65.1 °F 82% 29.95 in 10.0 mi South 8.1 mph - N/A   Overcast
7:15 AM 70.7 °F 65.7 °F 84% 29.94 in 10.0 mi South 6.9 mph - N/A   Overcast
7:35 AM 71.2 °F 65.3 °F 81% 29.93 in 10.0 mi SSE 6.9 mph - N/A   Overcast
7:54 AM 71.8 °F 65.5 °F 80% 29.94 in 10.0 mi SSE 5.8 mph - N/A   Overcast
8:15 AM 71.6 °F 66.2 °F 83% 29.93 in 10.0 mi South 8.1 mph - N/A   Overcast
8:35 AM 71.2 °F 67.8 °F 89% 29.92 in 10.0 mi SE 4.6 mph - N/A   Overcast
8:54 AM 72.5 °F 68.7 °F 88% 29.92 in 10.0 mi SSE 3.5 mph - N/A   Overcast
9:15 AM 75.4 °F 72.7 °F 91% 29.92 in 10.0 mi SW 8.1 mph - N/A   Overcast
9:35 AM 75.7 °F 73.4 °F 92% 29.92 in 10.0 mi SW 10.4 mph 17.3 mph N/A   Overcast
10:15 AM 75.7 °F 73.4 °F 92% 29.92 in 7.0 mi SW 8.1 mph - N/A   Overcast
10:35 AM 76.1 °F 73.6 °F 92% 29.93 in 10.0 mi WSW 9.2 mph - N/A   Overcast
10:54 AM 76.6 °F 73.8 °F 91% 29.92 in 10.0 mi SSW 6.9 mph - N/A   Overcast
11:15 AM 77.0 °F 73.9 °F 90% 29.92 in 10.0 mi SW 8.1 mph - N/A   Overcast
11:35 AM 77.7 °F 74.3 °F 89% 29.92 in 10.0 mi SW 9.2 mph - N/A   Overcast
11:54 AM 77.4 °F 74.3 °F 90% 29.93 in 10.0 mi WSW 12.7 mph - N/A   Overcast
12:15 PM 77.0 °F 73.8 °F 90% 29.93 in 10.0 mi WSW 10.4 mph 16.1 mph N/A   Overcast
12:35 PM 76.6 °F 73.8 °F 91% 29.93 in 10.0 mi WSW 9.2 mph 16.1 mph N/A   Overcast
12:54 PM 76.6 °F 73.9 °F 91% 29.93 in 10.0 mi WSW 10.4 mph - N/A   Overcast
1:15 PM 77.2 °F 74.5 °F 91% 29.93 in 10.0 mi WSW 8.1 mph - N/A   Overcast
1:35 PM 77.0 °F 74.3 °F 91% 29.93 in 10.0 mi WSW 10.4 mph - N/A   Overcast
1:54 PM 79.2 °F 74.7 °F 86% 29.92 in 10.0 mi WSW 9.2 mph - N/A   Mostly Cloudy
2:15 PM 77.2 °F 73.4 °F 88% 29.93 in 10.0 mi WNW 10.4 mph 17.3 mph N/A   Overcast
2:34 PM 77.9 °F 72.5 °F 83% 29.93 in 10.0 mi WNW 9.2 mph 17.3 mph N/A   Overcast
2:55 PM 77.5 °F 71.6 °F 82% 29.93 in 10.0 mi NW 10.4 mph 17.3 mph N/A   Overcast
3:15 PM 78.1 °F 70.0 °F 76% 29.92 in 10.0 mi WNW 9.2 mph 17.3 mph N/A   Overcast
3:34 PM 76.5 °F 70.0 °F 80% 29.92 in 10.0 mi West 8.1 mph - N/A   Overcast
3:55 PM 78.6 °F 70.0 °F 75% 29.91 in 10.0 mi West 6.9 mph - N/A   Scattered Clouds
4:15 PM 78.3 °F 70.0 °F 76% 29.90 in 10.0 mi West 10.4 mph 17.3 mph N/A   Scattered Clouds
4:34 PM 78.6 °F 69.1 °F 72% 29.90 in 10.0 mi West 9.2 mph - N/A   Mostly Cloudy
4:55 PM 77.9 °F 67.5 °F 70% 29.91 in 10.0 mi WNW 9.2 mph - N/A   Mostly Cloudy
5:34 PM 77.0 °F 68.0 °F 74% 29.93 in 10.0 mi NNW 13.8 mph 20.7 mph N/A   Mostly Cloudy
6:15 PM 72.5 °F 66.6 °F 82% 29.94 in 10.0 mi NW 11.5 mph 20.7 mph N/A   Mostly Cloudy
6:34 PM 71.1 °F 65.5 °F 82% 29.94 in 10.0 mi NW 10.4 mph 16.1 mph N/A   Mostly Cloudy
6:55 PM 70.0 °F 65.1 °F 85% 29.94 in 10.0 mi NW 10.4 mph 17.3 mph N/A   Mostly Cloudy
7:15 PM 68.9 °F 64.4 °F 86% 29.93 in 10.0 mi NW 10.4 mph 18.4 mph N/A   Mostly Cloudy
7:34 PM 68.2 °F 63.9 °F 86% 29.92 in 10.0 mi NNW 11.5 mph 17.3 mph N/A   Scattered Clouds
7:55 PM 67.5 °F 63.7 °F 88% 29.93 in 10.0 mi NW 8.1 mph 17.3 mph N/A   Mostly Cloudy
8:15 PM 67.1 °F 63.7 °F 89% 29.94 in 10.0 mi NNW 12.7 mph 17.3 mph N/A   Overcast
8:34 PM 66.4 °F 61.7 °F 85% 29.95 in 10.0 mi NNW 9.2 mph - N/A   Mostly Cloudy
8:55 PM 65.3 °F 61.2 °F 86% 29.96 in 10.0 mi NNW 6.9 mph - N/A   Scattered Clouds
9:15 PM 64.8 °F 61.2 °F 88% 29.98 in 10.0 mi Calm Calm - N/A   Scattered Clouds
9:35 PM 64.0 °F 61.2 °F 90% 29.98 in 10.0 mi NNW 4.6 mph - N/A   Scattered Clouds
9:55 PM 63.9 °F 60.6 °F 89% 29.99 in 10.0 mi NNW 5.8 mph - N/A   Clear
10:14 PM 63.9 °F 60.4 °F 89% 29.99 in 10.0 mi Calm Calm - N/A   Clear
10:35 PM 63.5 °F 60.4 °F 90% 30.00 in 10.0 mi Calm Calm - N/A   Scattered Clouds
10:55 PM 63.0 °F 60.4 °F 91% 30.00 in 3.0 mi Calm Calm - N/A Rain Light Rain
11:14 PM 63.5 °F 60.8 °F 91% 30.00 in 10.0 mi Calm Calm - N/A   Overcast
11:35 PM 62.8 °F 60.8 °F 93% 29.99 in 10.0 mi Calm Calm - N/A   Overcast
11:55 PM 63.0 °F 60.8 °F 93% 30.01 in 10.0 mi North 5.8 mph - N/A   Overcast